Stations météo

réclame
Mon MeteoGroup
De Bilt, Pays-Bas (6260): Température de l'air & dewpoint: 16.07.2019 05:00:00 - 22.07.2019 05:00:00 (CEST)De Bilt, Pays-Bas (6260): Température de l'air 5cm & Température de l'air -5cm: 16.07.2019 05:00:00 - 22.07.2019 05:00:00 (CEST)De Bilt, Pays-Bas (6260): Température de l'air -20cm & Température de l'air -100cm: 16.07.2019 05:00:00 - 22.07.2019 05:00:00 (CEST)De Bilt, Pays-Bas (6260): Vitesse du vent & gusts: 16.07.2019 05:00:00 - 22.07.2019 05:00:00 (CEST)De Bilt, Pays-Bas (6260): Direction du vent: 16.07.2019 05:00:00 - 22.07.2019 05:00:00 (CEST)De Bilt, Pays-Bas (6260): reduced air pressure: 16.07.2019 05:00:00 - 22.07.2019 05:00:00 (CEST)De Bilt, Pays-Bas (6260): visibility: 16.07.2019 05:00:00 - 22.07.2019 05:00:00 (CEST)De Bilt, Pays-Bas (6260): Quantités de précipitations: 16.07.2019 05:00:00 - 22.07.2019 05:00:00 (CEST)
Date & Time tt [°C] td [°C] tt 5cm [°C] tt -5cm [°C] tt -20cm [°C] tt -100cm [°C] ff [km/h] ff [knt] fx [km/h] fx [knt] dd ppp [hPa] vv [km] rr [mm]
22.07.2019 05:00:00 14,5 13,3 12,9 17,8 18,1 16,0 4 2 7 4 SSE 1022,3 16 0,0
22.07.2019 04:00:00 14,4 13,4 13,3 18,0 18,2 16,0 7 4 7 4 SSE 1022,5 22 0,0
22.07.2019 03:00:00 14,1 13,2 13,1 18,2 18,3 16,0 4 2 4 2 SE 1022,8 30 0,0
22.07.2019 02:00:00 13,9 13,2 13,0 18,5 18,4 16,0 4 2 4 2 SE 1023,0 39 0,0
22.07.2019 01:00:00 13,8 13,1 12,4 18,8 18,5 16,0 4 2 4 2 SSE 1023,1 49 0,0
22.07.2019 00:00:00 13,8 13,0 12,0 19,2 18,6 16,0 0 0 4 2 N 1023,3 47 0,0
21.07.2019 23:00:00 14,4 13,5 12,8 19,6 18,6 16,0 0 0 4 2 N 1023,1 49 0,0
21.07.2019 22:00:00 16,3 13,6 14,9 19,9 18,5 16,0 0 0 4 2 N 1022,6 49 0,0
21.07.2019 21:00:00 19,0 11,7 17,2 20,1 18,4 16,0 4 2 11 6 NNW 1022,6 50 0,0
21.07.2019 20:00:00 20,6 10,2 20,4 20,2 18,3 16,0 11 6 18 10 NW 1022,5 49 0,0
21.07.2019 19:00:00 21,4 10,4 21,8 20,2 18,2 16,0 11 6 22 12 WNW 1022,2 47 0,0
21.07.2019 18:00:00 21,5 10,2 21,9 20,0 18,0 16,0 14 8 25 14 WNW 1022,5 48 0,0
21.07.2019 17:00:00 22,4 11,2 22,5 19,8 17,9 16,0 11 6 22 12 WNW 1022,2 49 0,0
21.07.2019 16:00:00 22,3 11,4 23,1 19,4 17,8 16,0 11 6 25 14 W 1022,3 37 0,0
21.07.2019 15:00:00 21,8 10,7 21,9 19,0 17,7 16,0 14 8 32 18 WNW 1021,9 41 0,0
21.07.2019 14:00:00 21,2 11,6 21,7 18,6 17,6 16,0 14 8 25 14 W 1021,6 38 0,0
21.07.2019 13:00:00 21,1 11,8 21,2 18,3 17,5 16,0 11 6 22 12 W 1021,1 43 0,0
21.07.2019 12:00:00 20,6 11,8 20,4 18,0 17,5 16,0 11 6 22 12 W 1020,5 46 0,0
21.07.2019 11:00:00 20,6 12,1 20,6 17,7 17,5 16,0 14 8 25 14 W 1020,2 39 0,0
21.07.2019 10:00:00 19,6 11,5 19,6 17,6 17,6 16,0 11 6 22 12 W 1019,6 38 0,0
21.07.2019 09:00:00 18,8 12,5 18,0 17,5 17,6 16,0 11 6 22 12 W 1018,8 43 0,0
21.07.2019 08:00:00 17,7 13,7 17,0 17,5 17,8 16,0 7 4 14 8 W 1018,1 46 0,0
21.07.2019 07:00:00 16,6 14,8 15,5 17,6 17,8 16,0 7 4 11 6 W 1017,5 22 0,0
21.07.2019 06:00:00 15,7 15,0 14,2 17,8 17,9 16,0 7 4 11 6 SW 1016,5 11 0,0
21.07.2019 05:00:00 16,1 15,0 15,0 17,9 18,0 16,0 7 4 14 8 SW 1015,8 14 0,0
21.07.2019 04:00:00 16,5 15,0 15,5 18,1 18,1 16,0 7 4 18 10 WSW 1015,3 17 0,0
21.07.2019 03:00:00 17,1 14,8 16,2 18,2 18,1 16,0 11 6 22 12 WSW 1014,7 23 0,0
21.07.2019 02:00:00 17,4 14,5 16,3 18,4 18,2 16,0 14 8 25 14 WSW 1014,3 30 0,0
21.07.2019 01:00:00 17,9 14,3 16,9 18,6 18,2 16,0 14 8 25 14 SW 1014,2 38 0,0
21.07.2019 00:00:00 18,2 14,0 17,0 18,9 18,3 16,0 14 8 29 16 SW 1013,7 43 0,0
20.07.2019 23:00:00 18,8 13,3 17,5 19,1 18,3 16,0 18 10 36 19 WSW 1012,9 50 0,0
20.07.2019 22:00:00 19,4 14,4 18,1 19,3 18,2 16,0 14 8 29 16 WSW 1012,3 50 0,0
20.07.2019 21:00:00 20,4 14,2 19,5 19,5 18,1 16,0 14 8 36 19 WSW 1011,4 45 0,0
20.07.2019 20:00:00 21,5 13,6 21,1 19,5 18,0 15,9 22 12 40 21 W 1011,0 48 0,0
20.07.2019 19:00:00 22,3 18,0 22,2 19,4 17,9 15,9 11 6 25 14 WSW 1010,4 33 0,3
20.07.2019 18:00:00 22,4 17,3 22,2 19,2 17,8 15,9 11 6 29 16 W 1010,0 39 0,0
20.07.2019 17:00:00 22,8 17,8 24,3 18,9 17,7 15,9 11 6 22 12 S 1009,2 29 0,0
20.07.2019 16:00:00 21,0 16,8 20,9 18,6 17,7 15,9 7 4 22 12 S 1009,7 39 0,0
20.07.2019 15:00:00 20,5 17,0 21,5 18,2 17,7 15,9 11 6 22 12 S 1010,1 33 0,1
20.07.2019 14:00:00 19,1 16,8 20,1 17,9 17,7 15,9 14 8 22 12 S 1010,2 30 0,6
20.07.2019 13:00:00 17,2 16,1 17,2 17,8 17,8 15,9 7 4 18 10 S 1010,0 34 3,9
20.07.2019 12:00:00 16,8 15,4 16,4 18,1 17,8 15,9 11 6 25 14 SSW 1010,4 8 3,0
20.07.2019 11:00:00 18,2 15,5 17,7 18,1 17,9 15,9 14 8 29 16 SSW 1010,0 31 0,4
20.07.2019 10:00:00 19,0 15,8 18,3 18,1 17,9 15,9 11 6 22 12 SW 1010,0 40 0,1
20.07.2019 09:00:00 19,8 15,2 19,1 18,0 17,9 15,9 14 8 29 16 SW 1009,7 36 0,0
20.07.2019 08:00:00 20,2 15,3 19,4 18,1 18,1 15,9 14 8 22 12 SSE 1008,6 33 0,0
20.07.2019 07:00:00 18,3 14,3 17,4 18,2 18,1 15,9 11 6 18 10 SSE 1009,0 39 0,0
20.07.2019 06:00:00 17,9 13,7 16,7 18,3 18,2 15,9 11 6 18 10 SSE 1009,3 44 0,0
20.07.2019 05:00:00 18,2 13,3 16,7 18,5 18,3 15,9 11 6 18 10 SSE 1009,6 44 0,0
20.07.2019 04:00:00 18,5 13,1 16,8 18,7 18,4 15,9 11 6 14 8 SSE 1010,1 47 0,0
20.07.2019 03:00:00 19,1 13,1 17,1 18,9 18,4 15,9 11 6 18 10 SSE 1010,7 43 0,0
20.07.2019 02:00:00 16,3 14,8 14,7 19,1 18,5 15,9 7 4 7 4 SE 1011,3 26 0,0
20.07.2019 01:00:00 17,0 14,8 15,2 19,4 18,6 15,9 4 2 11 6 ESE 1011,7 35 0,0
20.07.2019 00:00:00 16,9 15,0 15,4 19,7 18,6 15,9 4 2 7 4 NNE 1012,3 34 0,0
19.07.2019 23:00:00 19,2 13,9 17,5 19,9 18,6 15,9 4 2 7 4 N 1012,6 48 0,0
19.07.2019 22:00:00 19,3 14,3 18,1 20,1 18,5 15,9 4 2 7 4 NE 1012,9 40 0,0
19.07.2019 21:00:00 20,8 14,2 19,9 20,3 18,5 15,9 7 4 11 6 NW 1013,0 48 0,0
19.07.2019 20:00:00 21,5 14,2 20,6 20,4 18,4 15,9 7 4 11 6 NNW 1012,9 47 0,0
19.07.2019 19:00:00 22,7 13,4 21,6 20,5 18,3 15,9 7 4 14 8 SSW 1012,9 35 0,0
19.07.2019 18:00:00 23,1 13,3 22,8 20,5 18,1 15,9 11 6 18 10 SW 1012,9 35 0,0
19.07.2019 17:00:00 23,2 13,5 23,6 20,2 17,9 15,9 14 8 22 12 SSW 1013,2 28 0,0
19.07.2019 16:00:00 24,1 13,4 26,1 19,8 17,8 15,8 14 8 29 16 S 1013,4 23 0,0
19.07.2019 15:00:00 23,5 13,2 24,2 19,4 17,6 15,8 11 6 22 12 SSW 1013,6 33 0,0
19.07.2019 14:00:00 23,2 11,2 25,2 19,0 17,5 15,8 11 6 25 14 SW 1013,6 29 0,0
19.07.2019 13:00:00 21,3 14,9 22,7 18,6 17,4 15,8 11 6 18 10 S 1013,7 19 0,0
19.07.2019 12:00:00 21,0 15,3 23,4 18,1 17,4 15,8 11 6 18 10 SSW 1013,5 15 0,0
19.07.2019 11:00:00 20,0 15,3 22,1 17,8 17,4 15,8 11 6 14 8 SSW 1013,8 14 0,0
19.07.2019 10:00:00 19,3 15,8 20,4 17,6 17,5 15,8 7 4 14 8 S 1013,8 13 0,0
19.07.2019 09:00:00 18,0 15,1 19,0 17,5 17,6 15,8 11 6 14 8 SSW 1013,6 16 0,0
19.07.2019 08:00:00 17,5 15,3 16,9 17,5 17,7 15,8 7 4 11 6 S 1013,1 19 0,0
19.07.2019 07:00:00 16,0 14,5 14,7 17,6 17,8 15,8 4 2 7 4 SSW 1012,9 22 0,0
19.07.2019 06:00:00 15,5 14,8 14,6 17,7 17,8 15,8 7 4 11 6 SW 1012,7 18 0,0
19.07.2019 05:00:00 14,2 13,8 12,6 18,0 17,9 15,8 4 2 7 4 SSW 1012,5 7 0,0
19.07.2019 04:00:00 15,1 14,1 13,6 18,2 18,0 15,8 4 2 11 6 SSW 1012,5 14 0,0
19.07.2019 03:00:00 16,0 14,5 14,1 18,4 18,1 15,8 7 4 11 6 SW 1012,3 25 0,0
19.07.2019 02:00:00 17,0 14,6 15,5 18,6 18,1 15,8 7 4 14 8 WSW 1012,1 32 0,0
19.07.2019 01:00:00 17,7 15,1 16,7 18,8 18,1 15,8 11 6 14 8 SW 1011,9 35 0,0
19.07.2019 00:00:00 17,9 15,4 17,2 18,9 18,1 15,8 11 6 22 12 SW 1011,9 29 0,0
18.07.2019 23:00:00 18,1 16,1 17,5 19,1 18,1 15,8 11 6 18 10 SW 1011,7 18 0,0
18.07.2019 22:00:00 18,3 16,2 17,6 19,2 18,1 15,8 14 8 25 14 SW 1011,4 28 0,1
18.07.2019 21:00:00 17,8 16,5 17,6 19,3 18,1 15,8 14 8 25 14 SW 1011,0 6 0,3
18.07.2019 20:00:00 18,0 16,1 17,8 19,5 18,1 15,8 14 8 29 16 SSW 1010,9 7 0,3
18.07.2019 19:00:00 20,8 14,4 20,2 19,5 18,0 15,8 14 8 25 14 SW 1010,5 17 0,0
18.07.2019 18:00:00 21,3 14,6 21,1 19,5 17,9 15,8 11 6 18 10 SW 1010,7 27 0,0
18.07.2019 17:00:00 21,1 13,9 20,6 19,5 17,8 15,8 14 8 25 14 WSW 1010,8 34 0,0
18.07.2019 16:00:00 21,5 13,5 21,8 19,3 17,7 15,8 11 6 25 14 WSW 1010,9 31 0,0
18.07.2019 15:00:00 21,8 12,4 22,9 19,1 17,6 15,8 14 8 29 16 SW 1010,8 28 0,0
18.07.2019 14:00:00 21,6 13,9 22,1 18,8 17,5 15,8 18 10 25 14 SW 1010,7 18 0,0
18.07.2019 13:00:00 22,1 12,9 23,2 18,5 17,4 15,8 18 10 29 16 SSW 1010,7 35 0,0
18.07.2019 12:00:00 22,6 13,5 24,2 18,1 17,4 15,8 14 8 22 12 SSW 1010,5 25 0,0
18.07.2019 11:00:00 21,2 13,7 22,9 17,8 17,4 15,8 14 8 22 12 SSW 1010,5 13 0,0
18.07.2019 10:00:00 19,6 13,5 20,4 17,6 17,5 15,7 11 6 22 12 S 1010,6 11 0,0
18.07.2019 09:00:00 19,2 13,9 19,9 17,6 17,6 15,7 11 6 18 10 SE 1010,4 8 0,0
18.07.2019 08:00:00 17,3 13,1 17,0 17,6 17,7 15,7 11 6 18 10 SSE 1010,7 8 0,0
18.07.2019 07:00:00 16,1 12,5 15,1 17,8 17,8 15,7 7 4 14 8 SSE 1010,9 10 0,0
18.07.2019 06:00:00 16,4 12,4 15,1 18,0 17,9 15,7 11 6 18 10 SE 1011,0 13 0,0
18.07.2019 05:00:00 16,1 12,8 14,7 18,2 18,0 15,7 7 4 14 8 SE 1011,2 17 0,0
18.07.2019 04:00:00 16,6 12,6 14,0 18,4 18,1 15,7 11 6 14 8 SSE 1011,4 22 0,0
18.07.2019 03:00:00 15,4 13,7 13,6 18,7 18,2 15,7 7 4 11 6 SE 1011,9 21 0,0
18.07.2019 02:00:00 15,3 13,7 13,3 19,0 18,3 15,7 7 4 11 6 ESE 1012,4 31 0,0
18.07.2019 01:00:00 15,0 14,4 13,7 19,4 18,4 15,7 4 2 7 4 E 1012,7 30 0,0
18.07.2019 00:00:00 15,3 14,5 13,7 19,8 18,4 15,7 4 2 4 2 E 1012,9 34 0,0
17.07.2019 23:00:00 16,4 14,8 14,6 20,3 18,4 15,7 4 2 4 2 E 1013,1 40 0,0
17.07.2019 22:00:00 18,0 15,0 16,3 20,7 18,3 15,7 0 0 4 2 N 1013,3 48 0,0
17.07.2019 21:00:00 20,8 14,0 18,9 20,9 18,1 15,7 4 2 7 4 ESE 1013,2 48 0,0
17.07.2019 20:00:00 22,6 13,3 21,7 21,1 17,9 15,7 4 2 7 4 E 1013,2 46 0,0
17.07.2019 19:00:00 22,1 13,7 21,5 21,0 17,7 15,7 7 4 14 8 E 1013,5 49 0,0
17.07.2019 18:00:00 23,8 13,3 25,2 20,7 17,5 15,7 7 4 14 8 E 1013,7 46 0,0
17.07.2019 17:00:00 24,3 12,2 25,8 20,3 17,2 15,7 7 4 14 8 WSW 1014,4 36 0,0
17.07.2019 16:00:00 23,9 13,0 25,2 19,7 16,9 15,7 4 2 11 6 SSW 1014,7 27 0,0
17.07.2019 15:00:00 23,1 13,3 26,0 18,9 16,7 15,7 7 4 14 8 SW 1015,0 31 0,0
17.07.2019 14:00:00 22,1 12,8 24,8 18,1 16,5 15,7 7 4 14 8 W 1015,6 24 0,0
17.07.2019 13:00:00 21,1 13,4 - - - - 7 4 14 8 SSW 1016,0 22 0,0
17.07.2019 12:00:00 20,1 13,6 22,9 16,6 16,3 15,7 7 4 14 8 SE 1016,1 14 0,0
17.07.2019 11:00:00 18,9 13,0 20,9 16,1 16,3 15,7 4 2 11 6 ESE 1016,2 15 0,0
17.07.2019 10:00:00 18,0 13,1 20,0 15,7 16,4 15,7 4 2 11 6 E 1016,6 13 0,0
17.07.2019 09:00:00 16,0 12,8 17,5 15,5 16,6 15,7 4 2 7 4 E 1016,8 12 0,0
17.07.2019 08:00:00 13,8 12,1 14,1 15,5 16,7 15,7 4 2 7 4 ENE 1016,6 9 0,0
17.07.2019 07:00:00 11,3 11,1 9,4 15,7 16,8 15,7 4 2 4 2 NE 1016,5 5 0,0
17.07.2019 06:00:00 8,7 8,5 7,2 16,0 16,9 15,7 4 2 4 2 NNE 1016,8 0,6 0,0
17.07.2019 05:00:00 9,1 8,8 7,3 16,3 17,1 15,7 4 2 4 2 NNE 1016,8 5 0,0
17.07.2019 04:00:00 9,5 9,2 7,4 16,6 17,2 15,7 4 2 4 2 NNE 1016,9 2,0 0,0
17.07.2019 03:00:00 9,8 9,3 8,0 16,9 17,3 15,7 4 2 4 2 NNE 1017,3 0,6 0,0
17.07.2019 02:00:00 10,8 10,4 8,7 17,3 17,3 15,7 4 2 4 2 NNW 1017,5 5 0,0
17.07.2019 01:00:00 11,9 11,3 10,2 17,6 17,4 15,7 4 2 7 4 N 1017,5 6 0,0
17.07.2019 00:00:00 14,3 12,7 12,6 17,9 17,4 15,7 7 4 14 8 NNW 1017,8 15 0,0
16.07.2019 23:00:00 14,8 12,9 13,0 18,2 17,4 15,7 4 2 4 2 S 1017,8 37 0,0
16.07.2019 22:00:00 15,2 13,1 13,6 18,4 17,4 15,7 0 0 4 2 N 1017,7 45 0,0
16.07.2019 21:00:00 17,7 13,1 17,4 18,5 17,3 15,7 4 2 4 2 SSE 1017,6 46 0,0
16.07.2019 20:00:00 18,5 12,3 17,9 18,4 17,1 15,7 4 2 7 4 E 1017,9 47 0,0
16.07.2019 19:00:00 18,5 12,7 18,7 18,3 17,0 15,7 7 4 11 6 E 1017,9 40 0,0
16.07.2019 18:00:00 18,5 11,4 19,1 18,1 16,9 15,7 4 2 11 6 SSE 1018,2 39 0,0
16.07.2019 17:00:00 18,0 11,9 18,9 17,9 16,9 15,7 7 4 11 6 NNW 1018,6 41 0,0
16.07.2019 16:00:00 17,6 11,9 18,2 17,6 16,8 15,7 7 4 14 8 NNW 1018,9 45 0,0
16.07.2019 15:00:00 17,3 11,6 17,6 17,4 16,8 15,7 7 4 14 8 W 1019,1 39 0,0
16.07.2019 14:00:00 17,2 11,6 17,6 17,2 16,8 15,7 7 4 11 6 WNW 1019,2 43 0,0
16.07.2019 13:00:00 16,8 11,3 17,4 17,0 16,8 15,7 7 4 14 8 W 1019,3 40 0,0
16.07.2019 12:00:00 16,3 11,0 16,8 16,9 16,8 15,7 7 4 11 6 WSW 1019,5 40 0,0
16.07.2019 11:00:00 15,7 10,8 - - - - 7 4 14 8 WNW 1019,7 50 0,0
16.07.2019 10:00:00 15,3 10,6 15,6 16,7 16,9 15,7 4 2 7 4 NNW 1019,7 44 0,0
16.07.2019 09:00:00 15,1 10,9 14,9 16,7 16,9 15,7 4 2 11 6 N 1019,7 48 0,0
16.07.2019 08:00:00 14,9 10,6 14,5 16,7 17,0 15,7 4 2 7 4 N 1019,5 44 0,0
16.07.2019 07:00:00 14,6 10,1 13,8 16,8 17,1 15,7 4 2 7 4 WNW 1019,4 49 0,0
16.07.2019 06:00:00 14,5 9,7 13,6 16,9 17,1 15,7 4 2 14 8 WNW 1019,3 47 0,0
16.07.2019 05:00:00 14,3 11,1 13,6 17,1 17,2 15,7 4 2 7 4 NW 1019,3 49 0,0

tt = Température de l'air
td = dewpoint
tt 5cm = Température de l'air 5cm
tt -5cm = Température de l'air -5cm
tt -20cm = Température de l'air -20cm
tt -100cm = Température de l'air -100cm
ff = Vitesse du vent
fx = gusts
dd = Direction du vent
ppp = reduced air pressure
vv = visibility
rr = Quantités de précipitations

stations d'obs. à proximité